Location: Pacheco
(37.9835°N, 122.0752°W)
Time: 11:11:45
(UTC+00:00)

Cosmos 494 Rocket - Pass Details

Date: 13 April 2024
Orbit: 740 x 768 km, 74.1° (Epoch: 24 May)

Event Time Altitude Azimuth Distance (km) Brightness Sun altitude
Exits shadow 13:02:32 - 217° (SW) 2,985 6.6 -7.0°
Reaches altitude 10° 13:04:27 10° 223° (SW) 2,273 5.9 -6.6°
Maximum altitude 13:09:19 41° 293° (WNW) 1,079 4.5 -5.7°
Drops below altitude 10° 13:14:10 10° 4° (N) 2,270 6.7 -4.8°
Sets 13:16:39 0° 11° (NNE) 3,194 7.6 -4.3°
